FW9116 Weather Reports


Display with metric or nautical units.
time (UTC)temp
F
wind
direction
speed
MPH
gust
MPH
rain 1hr
in
rain 24hr
in
rain mn
in
humidity
%
barometer
mb
20260510160557 56 0 2.0 5.0 0.00 0.00 0.00 82 1018.5
20260510155557 57 0 1.0 5.0 0.00 0.00 0.00 82 1018.6
20260510155057 56 159 1.0 5.0 0.00 0.00 0.00 82 1018.5
20260510154559 57 101 1.0 4.0 0.00 0.00 0.00 80 1018.4
20260510154055 57 128 1.0 4.0 0.00 0.00 0.00 80 1018.4
20260510153554 56 0 0.0 4.0 0.00 0.00 0.00 82 1018.3
20260510153104 55 0 0.0 4.0 0.00 0.00 0.00 81 1018.3
20260510152559 56 79 1.0 3.0 0.00 0.00 0.00 81 1018.2
20260510152057 55 40 0.0 2.0 0.00 0.00 0.00 81 1018.2
20260510151628 56 0 0.0 4.0 0.00 0.00 0.00 81 1018.1
20260510151058 55 0 0.0 4.0 0.00 0.00 0.00 82 1018.0
20260510150557 55 41 1.0 3.0 0.00 0.00 0.00 82 1018.2
20260510145556 55 194 0.0 2.0 0.00 0.00 0.00 86 1018.2
20260510145056 54 0 0.0 2.0 0.00 0.00 0.00 87 1017.9
20260510144604 54 209 1.0 2.0 0.00 0.00 0.00 88 1017.8
20260510144058 54 209 0.0 2.0 0.00 0.00 0.00 88 1018.0
20260510143558 54 0 0.0 2.0 0.00 0.00 0.00 89 1018.0
20260510143108 54 0 0.0 2.0 0.00 0.00 0.00 89 1017.8
20260510142558 54 155 0.0 2.0 0.00 0.00 0.00 89 1017.5
20260510142057 54 155 0.0 2.0 0.00 0.00 0.00 89 1017.5
20260510141601 54 0 0.0 2.0 0.00 0.00 0.00 89 1017.5
20260510141054 53 155 0.0 3.0 0.00 0.00 0.00 89 1017.3
20260510140557 54 163 0.0 3.0 0.00 0.00 0.00 88 1017.3
20260510140056 54 102 0.0 2.0 0.00 0.00 0.00 89 1017.3
20260510135554 53 102 0.0 2.0 0.00 0.00 0.00 89 1017.5
20260510135057 53 0 0.0 2.0 0.00 0.00 0.00 89 1017.2
20260510134558 53 0 0.0 2.0 0.00 0.00 0.00 90 1017.1
20260510134057 53 0 0.0 2.0 0.00 0.00 0.00 90 1017.2
20260510133553 53 0 0.0 2.0 0.00 0.00 0.00 90 1017.3
20260510133054 53 0 0.0 1.0 0.00 0.00 0.00 90 1017.2
20260510132553 53 0 0.0 0.0 0.00 0.00 0.00 90 1017.0
20260510132058 53 0 0.0 3.0 0.00 0.00 0.00 90 1017.0
20260510131559 53 0 0.0 3.0 0.00 0.00 0.00 90 1017.0
20260510131054 53 102 0.0 3.0 0.00 0.00 0.00 90 1016.9
20260510130559 52 102 0.0 2.0 0.00 0.00 0.00 90 1017.0
20260510130056 53 44 0.0 2.0 0.00 0.00 0.00 89 1016.8
20260510125557 53 0 0.0 0.0 0.00 0.00 0.00 89 1017.2
20260510125101 53 0 0.0 0.0 0.00 0.00 0.00 88 1017.4
20260510124601 53 0 0.0 0.0 0.00 0.00 0.00 88 1017.4
20260510124057 53 0 0.0 2.0 0.00 0.00 0.00 88 1017.4
20260510123557 53 0 0.0 2.0 0.00 0.00 0.00 88 1017.3
20260510123056 53 0 0.0 2.0 0.00 0.00 0.00 88 1017.2
20260510122553 53 0 0.0 1.0 0.00 0.00 0.00 88 1017.1
20260510122053 53 0 0.0 1.0 0.00 0.00 0.00 88 1017.3
20260510121555 53 0 0.0 1.0 0.00 0.00 0.00 88 1017.2
20260510121055 53 0 0.0 0.0 0.00 0.00 0.00 88 1017.2
20260510120557 53 0 0.0 0.0 0.00 0.00 0.00 88 1017.3
20260510120054 53 0 0.0 1.0 0.00 0.00 0.00 88 1017.2
20260510115557 53 0 0.0 2.0 0.00 0.00 0.00 88 1017.2
20260510115054 54 0 0.0 2.0 0.00 0.00 0.00 87 1017.0
20260510114554 54 0 0.0 3.0 0.00 0.00 0.00 87 1017.0
20260510114057 54 44 1.0 3.0 0.00 0.00 0.00 88 1016.9
20260510113554 54 33 1.0 3.0 0.00 0.00 0.00 87 1016.8
20260510113056 54 0 0.0 0.0 0.00 0.00 0.00 87 1017.0
20260510112557 54 0 0.0 1.0 0.00 0.00 0.00 86 1017.1
20260510112057 54 0 0.0 1.0 0.00 0.00 0.00 87 1017.1
20260510111557 54 33 0.0 1.0 0.00 0.00 0.00 86 1016.9
20260510111053 54 0 0.0 1.0 0.00 0.00 0.00 86 1016.7
20260510110553 55 0 0.0 0.0 0.00 0.00 0.00 85 1016.6
20260510110055 55 0 0.0 0.0 0.00 0.00 0.00 85 1016.7
20260510105554 55 0 0.0 1.0 0.00 0.00 0.00 85 1016.7
20260510105105 55 0 0.0 1.0 0.00 0.00 0.00 85 1016.6
20260510104555 55 0 0.0 1.0 0.00 0.00 0.00 84 1016.5
20260510104057 55 0 0.0 1.0 0.00 0.00 0.00 84 1016.5
20260510103557 55 33 0.0 1.0 0.00 0.00 0.00 84 1016.4
20260510103057 55 0 0.0 1.0 0.00 0.00 0.00 83 1016.2
20260510102557 56 0 0.0 1.0 0.00 0.00 0.00 83 1016.2
20260510102057 56 0 0.0 0.0 0.00 0.00 0.00 81 1016.1
20260510101555 56 0 0.0 0.0 0.00 0.00 0.00 81 1016.1
20260510101057 56 0 0.0 1.0 0.00 0.00 0.00 81 1015.9
20260510100557 57 0 0.0 1.0 0.00 0.00 0.00 80 1015.7
20260510100115 57 0 0.0 1.0 0.00 0.00 0.00 80 1015.6
20260510095556 57 0 0.0 2.0 0.00 0.00 0.00 79 1015.6
20260510095059 57 0 0.0 2.0 0.00 0.00 0.00 79 1015.6
20260510094602 58 0 0.0 1.0 0.00 0.00 0.00 78 1015.5
20260510094100 58 0 0.0 2.0 0.00 0.00 0.00 78 1015.6
20260510093557 58 0 0.0 2.0 0.00 0.00 0.00 77 1015.7
20260510093102 58 0 0.0 1.0 0.00 0.00 0.00 77 1015.8
20260510092557 58 0 0.0 0.0 0.00 0.00 0.00 77 1015.8
20260510092057 58 0 0.0 1.0 0.00 0.00 0.00 77 1015.8
20260510091556 58 0 0.0 1.0 0.00 0.00 0.00 77 1015.8
20260510091057 58 0 0.0 1.0 0.00 0.00 0.00 77 1015.8
20260510090559 57 0 0.0 0.0 0.00 0.00 0.00 77 1015.7
20260510085557 57 0 0.0 0.0 0.00 0.00 0.00 76 1015.5
20260510085056 57 0 0.0 0.0 0.00 0.00 0.00 76 1015.5
20260510084611 58 0 0.0 0.0 0.00 0.00 0.00 75 1015.5
20260510084054 58 0 0.0 0.0 0.00 0.00 0.00 74 1015.3
20260510083558 59 0 0.0 0.0 0.00 0.00 0.00 73 1015.4
20260510083056 59 0 0.0 0.0 0.00 0.00 0.00 72 1015.3
20260510082557 59 0 0.0 0.0 0.00 0.00 0.00 73 1015.4
20260510082057 59 0 0.0 0.0 0.00 0.00 0.00 73 1015.4
20260510081600 59 0 0.0 0.0 0.00 0.00 0.00 73 1015.3
20260510081057 60 0 0.0 0.0 0.00 0.00 0.00 71 1015.3
20260510080559 60 0 0.0 0.0 0.00 0.00 0.00 70 1015.4
20260510080058 61 0 0.0 0.0 0.00 0.00 0.00 69 1015.4
20260510075557 60 0 0.0 0.0 0.00 0.00 0.00 69 1015.4
20260510075057 61 0 0.0 0.0 0.00 0.00 0.00 69 1015.4
20260510074600 61 0 0.0 0.0 0.00 0.00 0.00 68 1015.4
20260510074058 61 0 0.0 0.0 0.00 0.00 0.00 68 1015.4
20260510073556 61 0 0.0 0.0 0.00 0.00 0.00 68 1015.5
20260510073105 61 0 0.0 0.0 0.00 0.00 0.00 68 1015.4
20260510072557 61 0 0.0 0.0 0.00 0.00 0.00 68 1015.4
20260510072059 61 0 0.0 0.0 0.00 0.00 0.00 68 1015.4
20260510071556 62 0 0.0 0.0 0.00 0.00 0.00 67 1015.3
20260510071054 62 0 0.0 0.0 0.00 0.00 0.00 67 1015.4
20260510070557 62 0 0.0 0.0 0.00 0.00 0.00 66 1015.4
20260510070058 62 0 0.0 0.0 0.00 0.00 0.00 66 1015.4
20260510065554 62 0 0.0 0.0 0.00 0.00 0.00 66 1015.4
20260510065055 62 0 0.0 0.0 0.00 0.00 0.00 67 1015.3
20260510064556 62 0 0.0 1.0 0.00 0.00 0.00 66 1015.3
20260510064057 63 0 0.0 2.0 0.00 0.00 0.00 65 1015.3
20260510063557 63 0 0.0 2.0 0.00 0.00 0.00 65 1015.1
20260510063056 63 0 0.0 3.0 0.00 0.00 0.00 64 1015.2
20260510062554 63 0 0.0 3.0 0.00 0.00 0.00 64 1015.1
20260510062054 64 0 0.0 2.0 0.00 0.00 0.00 63 1015.1
20260510061557 64 0 0.0 2.0 0.00 0.00 0.00 63 1015.2
20260510061058 64 352 0.0 4.0 0.00 0.00 0.00 62 1015.1
20260510060558 64 0 0.0 4.0 0.00 0.00 0.00 62 1015.1
20260510060056 64 5 0.0 1.0 0.00 0.00 0.00 62 1015.2
20260510055554 65 0 0.0 2.0 0.00 0.00 0.00 62 1015.2
20260510055059 65 0 0.0 4.0 0.00 0.00 0.00 62 1015.2
20260510054555 65 0 0.0 4.0 0.00 0.00 0.00 61 1015.1
20260510054057 65 5 0.0 3.0 0.00 0.00 0.00 61 1015.0
20260510053559 65 0 0.0 3.0 0.00 0.00 0.00 61 1015.0
20260510053102 65 15 0.0 2.0 0.00 0.00 0.00 60 1015.0
20260510052555 66 0 0.0 2.0 0.00 0.00 0.00 61 1015.0
20260510052058 66 300 0.0 4.0 0.00 0.00 0.00 61 1015.0
20260510051554 66 0 0.0 4.0 0.00 0.00 0.00 60 1015.0
20260510051055 66 284 0.0 3.0 0.00 0.00 0.00 60 1015.0
20260510050554 66 0 0.0 3.0 0.00 0.00 0.00 60 1015.1
20260510050056 66 0 0.0 3.0 0.00 0.00 0.00 60 1015.0
20260510045558 67 317 0.0 3.0 0.00 0.00 0.00 59 1015.1
20260510045055 67 0 0.0 4.0 0.00 0.00 0.00 59 1015.0
20260510044559 67 292 0.0 4.0 0.00 0.00 0.00 58 1015.0
20260510044056 67 303 0.0 3.0 0.00 0.00 0.00 58 1014.9
20260510043556 67 0 0.0 2.0 0.00 0.00 0.00 57 1014.9
20260510043108 67 0 0.0 3.0 0.00 0.00 0.00 57 1014.9
20260510042555 67 305 0.0 4.0 0.00 0.00 0.00 57 1014.9
20260510042100 67 0 0.0 4.0 0.00 0.00 0.00 57 1014.7
20260510041558 68 280 0.0 2.0 0.00 0.00 0.00 56 1014.7
20260510041055 68 0 0.0 2.0 0.00 0.00 0.00 55 1014.5
20260510040555 68 350 0.0 2.0 0.00 0.00 0.00 55 1014.5
20260510035556 68 5 0.0 3.0 0.00 0.00 0.00 53 1014.3
20260510035055 68 5 0.0 2.0 0.00 0.00 0.00 53 1014.3
20260510034559 69 0 0.0 3.0 0.00 0.00 0.00 52 1014.3
20260510034055 69 0 0.0 3.0 0.00 0.00 0.00 52 1014.3
20260510033554 69 0 0.0 4.0 0.00 0.00 0.00 52 1014.2
20260510033133 69 0 0.0 4.0 0.00 0.00 0.00 51 1014.2
20260510032554 69 347 0.0 5.0 0.00 0.00 0.00 51 1014.2
20260510032054 69 0 1.0 5.0 0.00 0.00 0.00 52 1014.2
20260510031622 70 0 0.0 4.0 0.00 0.00 0.00 51 1014.2
20260510031054 70 0 0.0 4.0 0.00 0.00 0.00 51 1014.2
20260510030558 70 5 0.0 4.0 0.00 0.00 0.00 49 1014.2
20260510025557 71 5 1.0 6.0 0.00 0.00 0.00 48 1014.1
20260510025055 71 10 1.0 4.0 0.00 0.00 0.00 46 1014.1
20260510024556 72 0 1.0 4.0 0.00 0.00 0.00 45 1014.0
20260510024056 72 360 2.0 5.0 0.00 0.00 0.00 45 1014.1
20260510023554 72 319 1.0 5.0 0.00 0.00 0.00 44 1014.0
20260510023056 73 5 0.0 3.0 0.00 0.00 0.00 43 1014.1
20260510022558 73 0 1.0 5.0 0.00 0.00 0.00 43 1014.1
20260510022101 73 0 0.0 5.0 0.00 0.00 0.00 41 1014.1
20260510021600 73 344 1.0 4.0 0.00 0.00 0.00 41 1014.2
20260510021057 74 14 1.0 4.0 0.00 0.00 0.00 41 1014.1
20260510020554 74 11 0.0 4.0 0.00 0.00 0.00 42 1014.2
20260510020058 74 5 0.0 4.0 0.00 0.00 0.00 42 1014.2
20260510015558 74 301 0.0 4.0 0.00 0.00 0.00 41 1014.1
20260510015056 75 0 0.0 5.0 0.00 0.00 0.00 41 1014.2
20260510014555 75 0 1.0 6.0 0.00 0.00 0.00 41 1014.2
20260510014057 75 0 2.0 7.0 0.00 0.00 0.00 41 1014.3
20260510013554 75 16 2.0 7.0 0.00 0.00 0.00 40 1014.4
20260510013057 76 321 1.0 4.0 0.00 0.00 0.00 39 1014.5
20260510012558 76 0 1.0 5.0 0.00 0.00 0.00 38 1014.4
20260510012055 76 49 1.0 5.0 0.00 0.00 0.00 36 1014.4
20260510011602 77 352 1.0 6.0 0.00 0.00 0.00 33 1014.6
20260510011054 78 0 0.0 6.0 0.00 0.00 0.00 31 1014.5
20260510010553 78 323 1.0 3.0 0.00 0.00 0.00 30 1014.5
20260510010107 78 0 0.0 2.0 0.00 0.00 0.00 31 1014.5
20260510005553 77 0 1.0 4.0 0.00 0.00 0.00 31 1014.4
20260510005058 78 293 0.0 4.0 0.00 0.00 0.00 32 1014.6
20260510004601 78 13 1.0 5.0 0.00 0.00 0.00 31 1014.6
20260510004057 79 5 1.0 5.0 0.00 0.00 0.00 31 1014.7
20260510003557 79 309 0.0 5.0 0.00 0.00 0.00 32 1014.6
20260510003056 79 286 1.0 6.0 0.00 0.00 0.00 32 1014.6
20260510002557 79 346 1.0 7.0 0.00 0.00 0.00 31 1014.6
20260510002055 80 45 2.0 7.0 0.00 0.00 0.00 28 1014.6
20260510001556 80 5 1.0 5.0 0.00 0.00 0.00 30 1014.6
20260510001055 79 0 1.0 5.0 0.00 0.00 0.00 28 1014.6
20260510000556 79 348 1.0 5.0 0.00 0.00 0.00 29 1014.8
20260510000107 80 51 1.0 6.0 0.00 0.00 0.00 28 1014.7
20260509235554 80 333 3.0 6.0 0.00 0.00 0.00 31 1014.8
20260509235056 79 0 1.0 5.0 0.00 0.00 0.00 27 1014.9
20260509234601 80 57 1.0 5.0 0.00 0.00 0.00 28 1014.9
20260509234058 79 0 0.0 5.0 0.00 0.00 0.00 28 1015.0
20260509233558 79 314 2.0 5.0 0.00 0.00 0.00 29 1014.8
20260509233057 79 36 1.0 6.0 0.00 0.00 0.00 27 1014.9
20260509232557 78 25 1.0 8.0 0.00 0.00 0.00 28 1015.0
20260509232058 78 87 3.0 8.0 0.00 0.00 0.00 26 1014.9
20260509231555 79 34 2.0 8.0 0.00 0.00 0.00 27 1015.0
20260509231055 78 47 3.0 8.0 0.00 0.00 0.00 27 1015.1
20260509230557 78 352 2.0 7.0 0.00 0.00 0.00 28 1015.2
20260509230057 78 49 3.0 6.0 0.00 0.00 0.00 27 1015.3
20260509225555 78 51 2.0 5.0 0.00 0.00 0.00 28 1015.5
20260509225054 78 5 2.0 6.0 0.00 0.00 0.00 29 1015.7
20260509224554 78 73 2.0 8.0 0.00 0.00 0.00 30 1015.7
20260509224059 78 0 2.0 8.0 0.00 0.00 0.00 30 1015.8
20260509223555 78 58 2.0 7.0 0.00 0.00 0.00 31 1015.9
20260509223105 77 5 3.0 7.0 0.00 0.00 0.00 31 1015.9
20260509222559 78 323 2.0 5.0 0.00 0.00 0.00 33 1016.1
20260509222055 79 286 1.0 4.0 0.00 0.00 0.00 34 1016.2
20260509221556 78 5 0.0 6.0 0.00 0.00 0.00 36 1016.3
20260509221056 78 314 1.0 7.0 0.00 0.00 0.00 36 1016.3
20260509220555 77 15 3.0 7.0 0.00 0.00 0.00 35 1016.3
20260509220100 78 300 1.0 4.0 0.00 0.00 0.00 36 1016.4
20260509215555 77 325 1.0 7.0 0.00 0.00 0.00 35 1016.5
20260509215058 76 342 2.0 7.0 0.00 0.00 0.00 37 1016.5
20260509214557 76 34 1.0 5.0 0.00 0.00 0.00 37 1016.6
20260509214057 75 61 1.0 5.0 0.00 0.00 0.00 36 1016.7
20260509213554 75 339 0.0 10.0 0.00 0.00 0.00 41 1016.8
20260509213058 74 0 2.0 10.0 0.00 0.00 0.00 41 1016.8
20260509212556 76 44 2.0 6.0 0.00 0.00 0.00 39 1016.8
20260509212057 76 32 1.0 6.0 0.00 0.00 0.00 43 1016.9
20260509211555 74 360 2.0 7.0 0.00 0.00 0.00 43 1016.9
20260509211055 75 5 2.0 7.0 0.00 0.00 0.00 41 1016.9
20260509210556 75 341 2.0 5.0 0.00 0.00 0.00 42 1016.9
20260509210106 76 292 1.0 6.0 0.00 0.00 0.00 43 1016.9
20260509205554 75 288 0.0 8.0 0.00 0.00 0.00 45 1016.9
20260509205054 74 9 3.0 8.0 0.00 0.00 0.00 46 1016.9
20260509204602 74 319 2.0 5.0 0.00 0.00 0.00 45 1016.9
20260509204055 74 29 2.0 11.0 0.00 0.00 0.00 45 1016.9
20260509203554 73 53 1.0 11.0 0.00 0.00 0.00 46 1016.9
20260509203059 73 330 2.0 9.0 0.00 0.00 0.00 48 1017.0
20260509202557 75 271 1.0 9.0 0.00 0.00 0.00 46 1017.1
20260509202056 74 20 1.0 6.0 0.00 0.00 0.00 47 1017.1
20260509201611 73 310 2.0 7.0 0.00 0.00 0.00 49 1017.1
20260509201100 73 301 2.0 11.0 0.00 0.00 0.00 46 1017.2
20260509200557 73 0 2.0 11.0 0.00 0.00 0.00 50 1017.4
20260509200108 72 200 3.0 11.0 0.00 0.00 0.00 52 1017.6
20260509195600 72 0 2.0 11.0 0.00 0.00 0.00 52 1017.6
20260509195057 72 337 2.0 7.0 0.00 0.00 0.00 51 1017.6
20260509194557 73 203 1.0 6.0 0.00 0.00 0.00 50 1017.7
20260509194055 72 0 1.0 8.0 0.00 0.00 0.00 54 1017.8
20260509193555 71 319 2.0 9.0 0.00 0.00 0.00 53 1017.9
20260509193058 71 31 1.0 9.0 0.00 0.00 0.00 54 1017.9
20260509192557 71 298 2.0 9.0 0.00 0.00 0.00 55 1018.0
20260509192054 70 349 3.0 9.0 0.00 0.00 0.00 55 1018.1
20260509191556 71 320 1.0 8.0 0.00 0.00 0.00 55 1018.1
20260509191057 69 98 2.0 9.0 0.00 0.00 0.00 57 1018.1
20260509190557 69 314 3.0 9.0 0.00 0.00 0.00 58 1018.2
20260509190057 68 5 2.0 8.0 0.00 0.00 0.00 59 1018.1
20260509185555 69 294 2.0 5.0 0.00 0.00 0.00 58 1018.3
20260509185055 70 352 1.0 5.0 0.00 0.00 0.00 58 1018.5
20260509184608 70 328 1.0 5.0 0.00 0.00 0.00 58 1018.5
20260509184055 69 0 1.0 10.0 0.00 0.00 0.00 59 1018.7
20260509183556 67 25 2.0 10.0 0.00 0.00 0.00 60 1018.8
20260509183058 68 318 2.0 7.0 0.00 0.00 0.00 61 1018.7
20260509182555 68 43 2.0 6.0 0.00 0.00 0.00 61 1018.8
20260509182054 67 54 2.0 9.0 0.00 0.00 0.00 59 1018.9
20260509181619 68 0 1.0 9.0 0.00 0.00 0.00 61 1018.8
20260509181058 66 5 2.0 8.0 0.00 0.00 0.00 63 1018.9
20260509180555 67 5 2.0 8.0 0.00 0.00 0.00 63 1018.8
20260509180058 65 336 2.0 7.0 0.00 0.00 0.00 65 1018.9
20260509175554 65 9 2.0 7.0 0.00 0.00 0.00 66 1018.8
20260509175054 65 350 3.0 7.0 0.00 0.00 0.00 65 1018.9
20260509174559 65 19 2.0 8.0 0.00 0.00 0.00 66 1018.9
20260509174058 64 11 2.0 8.0 0.00 0.00 0.00 67 1019.1
20260509173557 63 347 1.0 8.0 0.00 0.00 0.00 69 1019.2
20260509173104 63 317 2.0 7.0 0.00 0.00 0.00 69 1019.2
20260509172558 64 324 1.0 5.0 0.00 0.00 0.00 69 1019.3
20260509172100 63 28 1.0 8.0 0.00 0.00 0.00 69 1019.4
20260509171600 62 13 3.0 8.0 0.00 0.00 0.00 71 1019.5
20260509171057 61 5 3.0 8.0 0.00 0.00 0.00 71 1019.5
20260509170558 61 33 3.0 9.0 0.00 0.00 0.00 71 1019.7
20260509170059 61 70 3.0 9.0 0.00 0.00 0.00 72 1019.6
20260509165554 60 344 3.0 9.0 0.00 0.00 0.00 73 1019.5
20260509165058 61 34 3.0 9.0 0.00 0.00 0.00 73 1019.7
20260509164557 61 94 3.0 8.0 0.00 0.00 0.00 74 1019.8
20260509164058 60 80 3.0 8.0 0.00 0.00 0.00 74 1019.9
20260509163602 60 5 3.0 8.0 0.00 0.00 0.00 75 1020.0
20260509163102 59 5 2.0 7.0 0.00 0.00 0.00 75 1020.0
20260509162559 59 348 3.0 7.0 0.00 0.00 0.00 75 1020.2
20260509162057 59 5 2.0 7.0 0.00 0.00 0.00 77 1020.3
20260509161604 58 0 2.0 7.0 0.00 0.00 0.00 78 1020.3
20260509161055 58 196 0.0 5.0 0.00 0.00 0.00 78 1020.4